Weather History for KCQX - September, 2013

Change the Weather History Date:

Friday, September 13, 2013

  Actual Average Record
Temperature  
Mean Temperature 68 °F -  
Max Temperature 73 °F 69 °F 79 °F (2005)
Min Temperature 64 °F 56 °F 48 °F (1985)
Cooling Degree Days 4    
Growing Degree Days 18 (Base 50)    
Moisture  
Dew Point 67 °F    
Average Humidity 89    
Maximum Humidity 94    
Minimum Humidity 78    
Precipitation  
Precipitation 0.07 in - - ()
Sea Level Pressure  
Sea Level Pressure 29.65 in    
Wind  
Wind Speed 6 mph (SW)    
Max Wind Speed 10 mph    
Max Gust Speed 21 mph    
Visibility 8 miles    
Events Rain    
Averages and records for this station are not official NWS values.
T = Trace of Precipitation, MM = Missing Value Source: NWS Daily Summary

Daily Weather History Graph

Daily Weather History Graph

Search for Another Location

Airport or City:

Trip Planner

Search our weather history database for the weather conditions in past years. The results will help you decide how hot, cold, wet, or windy it might be!

Date:

Astronomy

Sep. 13, 2013 Rise Set
Actual Time 6:18 AM EDT 6:52 PM EDT
Civil Twilight 5:50 AM EDT 7:20 PM EDT
Nautical Twilight 5:17 AM EDT 7:53 PM EDT
Astronomical Twilight 4:43 AM EDT 8:27 PM EDT
Moon 2:42 PM EDT (9/13) No Moon Set
Length of Visible Light 13h 29m
Length of Day
12h 34m
First Quarter, 61% of the Moon is Illuminated
Sep 13
First Quarter
Sep 19
Full
Sep 26
Last Quarter
Oct 4
New
Oct 11
First Quarter

Hourly Weather History & Observations

Time (EDT) Temp. Dew Point Humidity Pressure Visibility Wind Dir Wind Speed Gust Speed Precip Events Conditions
12:01 AM 69.8 °F 66.2 °F 88% 29.74 in 8.0 mi SSW 8.1 mph 17.3 mph N/A   Mostly Cloudy
12:13 AM 69.8 °F 68.0 °F 94% 29.73 in 7.0 mi SSW 10.4 mph 18.4 mph N/A   Overcast
12:52 AM 70.0 °F 68.0 °F 93% 29.72 in 8.0 mi SSW 9.2 mph 20.7 mph N/A   Mostly Cloudy
1:52 AM 71.1 °F 68.0 °F 90% 29.70 in 10.0 mi SSW 10.4 mph 16.1 mph N/A   Mostly Cloudy
2:02 AM 71.6 °F 68.0 °F 88% 29.69 in 10.0 mi SSW 8.1 mph - N/A   Overcast
2:09 AM 71.6 °F 68.0 °F 88% 29.69 in 10.0 mi SW 10.4 mph - N/A   Overcast
2:52 AM 70.0 °F 68.0 °F 93% 29.67 in 7.0 mi SW 10.4 mph 16.1 mph N/A   Overcast
3:13 AM 69.8 °F 68.0 °F 94% 29.66 in 7.0 mi SSW 6.9 mph - N/A   Overcast
3:22 AM 69.8 °F 66.2 °F 88% 29.67 in 7.0 mi SW 5.8 mph - N/A   Overcast
3:33 AM 69.8 °F 68.0 °F 94% 29.67 in 6.0 mi SSW 5.8 mph - N/A   Overcast
3:52 AM 70.0 °F 68.0 °F 93% 29.67 in 3.0 mi SW 6.9 mph - N/A   Overcast
4:01 AM 69.8 °F 68.0 °F 94% 29.66 in 2.0 mi SSW 8.1 mph - N/A   Overcast
4:12 AM 69.8 °F 68.0 °F 94% 29.65 in 4.0 mi SW 6.9 mph - N/A   Overcast
4:52 AM 70.0 °F 68.0 °F 93% 29.65 in 8.0 mi Variable 5.8 mph - N/A   Overcast
5:10 AM 69.8 °F 68.0 °F 94% 29.64 in 10.0 mi SSW 5.8 mph - N/A   Overcast
5:39 AM 69.8 °F 68.0 °F 94% 29.64 in 10.0 mi SSW 6.9 mph - N/A   Overcast
5:52 AM 70.0 °F 68.0 °F 93% 29.64 in 10.0 mi Variable 6.9 mph - N/A   Overcast
6:13 AM 69.8 °F 68.0 °F 94% 29.64 in 10.0 mi SSW 4.6 mph - N/A   Overcast
6:52 AM 70.0 °F 68.0 °F 93% 29.65 in 10.0 mi SSW 6.9 mph - N/A   Overcast
7:28 AM 71.6 °F 69.8 °F 94% 29.64 in 10.0 mi Variable 5.8 mph - N/A   Overcast
7:52 AM 70.0 °F 66.9 °F 90% 29.64 in 9.0 mi SSW 3.5 mph - N/A   Overcast
8:52 AM 71.1 °F 68.0 °F 90% 29.64 in 5.0 mi Variable 4.6 mph - 0.01 in Rain Light Rain
9:52 AM 71.1 °F 69.1 °F 93% 29.64 in 3.0 mi SSW 3.5 mph - 0.00 in   Overcast
10:45 AM 71.6 °F 69.8 °F 94% 29.62 in 1.8 mi Calm Calm - 0.02 in Rain Rain
10:52 AM 71.1 °F 69.1 °F 93% 29.63 in 2.0 mi Variable 3.5 mph - 0.03 in Rain Light Rain
10:57 AM 71.6 °F 69.8 °F 94% 29.63 in 3.0 mi Calm Calm - 0.00 in Rain Light Rain
11:11 AM 71.6 °F 69.8 °F 94% 29.63 in 3.0 mi Calm Calm - 0.02 in Rain Light Rain
11:48 AM 71.6 °F 69.8 °F 94% 29.62 in 9.0 mi NW 4.6 mph - 0.03 in   Mostly Cloudy
11:52 AM 72.0 °F 69.1 °F 91% 29.61 in 9.0 mi NW 4.6 mph - 0.03 in   Mostly Cloudy
12:13 PM 73.4 °F 69.8 °F 88% 29.61 in 10.0 mi WNW 3.5 mph - 0.00 in   Mostly Cloudy
12:52 PM 72.0 °F 68.0 °F 87% 29.61 in 10.0 mi NNW 5.8 mph - 0.00 in   Overcast
1:00 PM 73.4 °F 68.0 °F 83% 29.60 in 10.0 mi Variable 3.5 mph - N/A   Mostly Cloudy
1:08 PM 73.4 °F 68.0 °F 83% 29.60 in 10.0 mi Calm Calm - N/A   Scattered Clouds
1:52 PM 73.9 °F 68.0 °F 82% 29.60 in 10.0 mi Variable 4.6 mph - N/A   Overcast
2:52 PM 73.0 °F 66.0 °F 79% 29.60 in 10.0 mi Calm Calm - N/A   Mostly Cloudy
3:15 PM 71.6 °F 66.2 °F 83% 29.61 in 10.0 mi Variable 3.5 mph - N/A   Overcast
3:52 PM 73.0 °F 66.9 °F 81% 29.61 in 10.0 mi Calm Calm - N/A   Overcast
4:02 PM 73.4 °F 66.2 °F 78% 29.60 in 10.0 mi Calm Calm - N/A   Overcast
4:32 PM 73.4 °F 66.2 °F 78% 29.60 in 10.0 mi SE 3.5 mph - N/A   Scattered Clouds
4:52 PM 73.0 °F 66.0 °F 79% 29.62 in 10.0 mi SSE 4.6 mph - N/A   Partly Cloudy
5:52 PM 72.0 °F 66.9 °F 84% 29.62 in 10.0 mi SW 4.6 mph - N/A   Partly Cloudy
6:52 PM 70.0 °F 64.9 °F 84% 29.64 in 10.0 mi WSW 5.8 mph - N/A   Clear
7:52 PM 70.0 °F 64.9 °F 84% 29.67 in 10.0 mi Variable 3.5 mph - N/A   Partly Cloudy
8:52 PM 68.0 °F 64.9 °F 90% 29.69 in 10.0 mi NNW 5.8 mph - N/A   Clear
9:52 PM 66.0 °F 61.0 °F 84% 29.71 in 10.0 mi Variable 6.9 mph - N/A   Scattered Clouds
10:13 PM 64.4 °F 60.8 °F 88% 29.71 in 10.0 mi Variable 3.5 mph - N/A   Mostly Cloudy
10:22 PM 64.4 °F 60.8 °F 88% 29.71 in 10.0 mi NNW 5.8 mph - N/A   Mostly Cloudy
10:52 PM 64.9 °F 61.0 °F 87% 29.72 in 10.0 mi Variable 5.8 mph - N/A   Overcast
11:27 PM 64.4 °F 60.8 °F 88% 29.72 in 10.0 mi Variable 5.8 mph - N/A   Overcast
11:52 PM 64.0 °F 60.1 °F 87% 29.73 in 10.0 mi NNW 9.2 mph - N/A   Overcast